Flag for Germany Weather past 2 weeks in Husum, Schleswig-Holstein, Germany

Now
50 °F

Cool.


Feels Like: 47 °F
Forecast: 40 / 58 °F
Wind: 8 mph from North

Location: Schleswig-Jagel


UV Index: 3 (Moderate)

Visibility: 4 mi


Pressure: 29.89 "Hg

Humidity: 67%

Dew point: 39 °F

Location of HusumLocation

Historic Weather in Husum

°F

Husum temperature yesterday

Maximum temperature yesterday: 59 °F (at 1:20 PM)
Minimum temperature yesterday: 41 °F (at 12:20 AM)
Average temperature yesterday: 49 °F

Past Weeks' High & Low Weather Summary

 TemperatureHumidityPressure
High63 °F (Apr 7, 3:20 PM)100% (Apr 5, 3:20 AM)30.48 "Hg (Apr 5, 3:20 AM)
Low30 °F (Apr 16, 6:20 AM)32% (Apr 16, 12:20 PM)29.59 "Hg (Apr 8, 7:20 AM)
Average47 °F79%29.98 "Hg
* Reported Apr 3 4:20 PM — Apr 18 4:20 PM, Husum, Weather by CustomWeather, © 2014

Note: Actual official high and low records may vary slightly from our data, if they occured in-between our weather recording intervals... More about our weather records

Advertising

Historic Weather Conditions — Data for Previous 24 hours

 ConditionsComfort  
Time TempWeatherWind HumidityBarometerVisibility
4:20 PM
Apr 18
50 °FCool.8 mph67%29.89 "Hg4 mi
3:20 PM50 °FCool.13 mph67%29.89 "Hg3 mi
2:20 PM50 °FCool.16 mph67%29.86 "Hg3 mi
1:20 PM50 °FCool.13 mph67%29.83 "Hg3 mi
12:20 PM50 °FCool.15 mph67%29.83 "Hg3 mi
11:20 AM48 °FCool.13 mph71%29.80 "Hg3 mi
10:20 AM46 °FCool.14 mph76%29.77 "Hg3 mi
9:20 AM46 °FCool.14 mph76%29.77 "Hg3 mi
8:20 AM45 °FQuite cool.10 mph87%29.77 "Hg3 mi
7:20 AM43 °FQuite cool.8 mph93%29.74 "Hg2 mi
6:20 AM41 °FQuite cool.9 mph93%29.74 "Hg3 mi
5:20 AM41 °FQuite cool.6 mph87%29.71 "Hg3 mi
4:20 AM41 °FQuite cool.6 mph87%29.71 "Hg3 mi
3:20 AM41 °FQuite cool.7 mph87%29.71 "Hg3 mi
2:20 AM43 °FQuite cool.14 mph87%29.71 "Hg3 mi
1:20 AM43 °FQuite cool.9 mph87%29.71 "Hg3 mi
12:20 AM41 °FQuite cool.10 mph87%29.74 "Hg3 mi
11:20 PM
Apr 17
45 °FQuite cool.17 mph87%29.74 "Hg3 mi
10:20 PM45 °FQuite cool.13 mph93%29.77 "Hg2 mi
9:20 PM46 °FCool.21 mph87%29.77 "Hg2 mi
8:20 PM48 °FCool.15 mph87%29.80 "Hg2 mi
6:20 PM54 °FCool.21 mph58%29.83 "Hg3 mi
5:20 PM57 °FPartly sunny.23 mph48%29.86 "HgN/A
Weather by CustomWeather, © 2014

See weather overview